Location: Newark
(49.8348°N, 24.0280°E)
Time: 15:37:31
(UTC+00:00)

Transit 2A - Pass Details

Date: 20 January 2020
Orbit: 600 x 959 km, 66.7° (Epoch: 23 February)

Event Time Altitude Azimuth Distance (km) Brightness Sun altitude
Rises 20:42:40 0° 239° (WSW) 2,879 - -52.9°
Reaches altitude 10° 20:45:04 10° 248° (WSW) 1,956 - -53.1°
Maximum altitude 20:49:07 37° 316° (NW) 943 - -53.6°
Drops below altitude 10° 20:53:12 10° 25° (NNE) 1,964 - -54.1°
Sets 20:55:37 0° 34° (NE) 2,893 - -54.3°
